User: anonymous   Login
Location: Caltech
(34.1382°N, 118.1253°W)
Time: 19:04:26
(UTC-07:00)
Language:

Gbstr 26 Del rocket - Orbit

View from above orbital plane
View from above orbital plane
View from above satellite
View from above satellite

Ground track
Ground track

The orbit data is extracted from the following two-line orbital elements,

1 25876U 99041E   16209.87395678 -.00000122 +00000-0 +20175-4 0  9997
2 25876 051.7638 156.1718 0532858 162.9374 199.0261 14.03843900869049
Epoch (UTC): 27 July 2016 20:58:29
Eccentricity: 0.0532858
inclination: 51.7638°
perigee height: 494 km
apogee height: 1267 km
right ascension of ascending node: 156.1718°
argument of perigee: 162.9374°
revolutions per day: 14.03843900
mean anomaly at epoch: 199.0261°
orbit number at epoch: 86904

The dashed part of the orbit path shows where the satellite is in the earth's shadow,  

DLR